User: anonymous   Login
Location: Unspecified
(0.0000°N, 0.0000°E)
Time: 03:07:40
(UTC+00:00)
Language:

GEOEYE 1 - Orbit

View from above orbital plane
View from above orbital plane
View from above satellite
View from above satellite

Ground track
Ground track

The orbit data is extracted from the following two-line orbital elements,

1 33331U 08042A   15087.78778331  .00000474  00000-0  98533-4 0  9999
2 33331 098.1112 164.0375 0008107 296.0658 063.9692 14.64471662350368
Epoch (UTC): 28 March 2015 18:54:24
Eccentricity: 0.0008107
inclination: 98.1112°
perigee height: 673 km
apogee height: 684 km
right ascension of ascending node: 164.0375°
argument of perigee: 296.0658°
revolutions per day: 14.64471662
mean anomaly at epoch: 63.9692°
orbit number at epoch: 35036

The dashed part of the orbit path shows where the satellite is in the earth's shadow,  

DLR